Weather History for Santa Rosa, CA

Change the Weather History Date:

Wednesday, November 10, 2010

  Actual Average Record
Temperature  
Mean Temperature 53 °F 54 °F  
Max Temperature 64 °F 67 °F 77 °F (2014)
Min Temperature 42 °F 41 °F 29 °F (2000)
Degree Days  
Heating Degree Days 12    
Month to date heating degree days 74  
Since 1 July heating degree days 321  
Cooling Degree Days 0    
Month to date cooling degree days 0  
Year to date cooling degree days 333  
Growing Degree Days 3 (Base 50)    
Moisture  
Dew Point 45 °F    
Average Humidity 74    
Maximum Humidity 100    
Minimum Humidity 48    
Precipitation  
Precipitation 0.01 in 0.14 in 0.65 in (2007)
Month to date precipitation 1.08 1.47  
Year to date precipitation 36.57 26.03  
Since 1 July precipitation 7.28 3.94  
Sea Level Pressure  
Sea Level Pressure 30.06 in    
Wind  
Wind Speed 6 mph (NW)    
Max Wind Speed 17 mph    
Max Gust Speed 23 mph    
Visibility 6 miles    
Events Fog    
T = Trace of Precipitation, MM = Missing Value Source: NWS Daily Summary

Daily Weather History Graph

Daily Weather History Graph

Search for Another Location

Airport:

Trip Planner

Search our weather history database for the weather conditions in past years. The results will help you decide how hot, cold, wet, or windy it might be!

Date:

Astronomy

Nov. 10, 2010 Rise Set
Actual Time 6:47 AM PST 5:02 PM PST
Civil Twilight 6:19 AM PST 5:30 PM PST
Nautical Twilight 5:47 AM PST 6:02 PM PST
Astronomical Twilight 5:16 AM PST 6:33 PM PST
Moon 11:13 AM PST (11/10) 9:11 PM PST (11/10)
Length of Visible Light 11h 10m
Length of Day
10h 14m
Waxing Crescent, 23% of the Moon is Illuminated
Nov 10
Waxing Crescent
Nov 13
First Quarter
Nov 21
Full
Nov 28
Last Quarter
Dec 5
New

Hourly Weather History & Observations

Time (PST) Temp. Windchill Dew Point Humidity Pressure Visibility Wind Dir Wind Speed Gust Speed Precip Events Conditions
12:02 AM 51.8 °F - 50.0 °F 94% 30.03 in 2.0 mi WSW 3.5 mph - N/A   Overcast
12:10 AM 51.8 °F - 50.0 °F 94% 30.03 in 6.0 mi Calm Calm - N/A   Overcast
12:40 AM 48.2 °F - 48.2 °F 100% 30.03 in 1.5 mi Calm Calm - N/A   Partly Cloudy
12:48 AM 48.2 °F - 48.2 °F 100% 30.03 in 0.8 mi Calm Calm - N/A   Scattered Clouds
12:53 AM 50.0 °F - 48.9 °F 96% 30.01 in 1.8 mi Calm Calm - N/A   Partly Cloudy
1:20 AM 48.2 °F - 46.4 °F 93% 30.03 in 0.5 mi Calm Calm - N/A Fog Fog
1:29 AM 48.2 °F - 46.4 °F 93% 30.03 in 0.5 mi South 4.6 mph - N/A Fog Fog
1:47 AM 46.4 °F 44.3 °F 46.4 °F 100% 30.03 in 1.0 mi SSW 4.6 mph - N/A   Scattered Clouds
1:53 AM 48.9 °F - 48.0 °F 97% 30.01 in 2.0 mi SSW 3.5 mph - N/A   Scattered Clouds
2:05 AM 46.4 °F - 46.4 °F 100% 30.03 in 0.8 mi Calm Calm - N/A   Mostly Cloudy
2:18 AM 46.4 °F - 46.4 °F 100% 30.03 in 2.0 mi Calm Calm - N/A   Overcast
2:31 AM 48.2 °F - 46.4 °F 93% 30.03 in 5.0 mi Calm Calm - N/A   Overcast
2:53 AM 48.9 °F - 48.0 °F 97% 30.02 in 8.0 mi Calm Calm - N/A   Overcast
4:15 AM 46.4 °F - 46.4 °F 100% 30.04 in 2.0 mi Calm Calm - N/A   Partly Cloudy
4:23 AM 46.4 °F - 44.6 °F 93% 30.04 in 1.0 mi Calm Calm - N/A   Clear
4:30 AM 46.4 °F - 44.6 °F 93% 30.04 in 0.5 mi Calm Calm - N/A Fog Fog
4:49 AM 44.6 °F - 44.6 °F 100% 30.04 in 0.2 mi Calm Calm - N/A Fog Fog
4:53 AM 45.0 °F - 44.1 °F 97% 30.02 in 0.2 mi Calm Calm - N/A Fog Fog
5:53 AM 43.0 °F 39.5 °F 42.1 °F 97% 30.03 in 0.2 mi NW 5.8 mph - N/A Fog Fog
6:53 AM 44.1 °F 42.5 °F 44.1 °F 100% 30.04 in 0.2 mi North 3.5 mph - 0.01 in Fog Fog
7:53 AM 46.9 °F - 46.9 °F 100% 30.06 in 10.0 mi NW 3.5 mph - N/A Fog Patches of Fog
8:53 AM 50.0 °F - 48.0 °F 93% 30.07 in 10.0 mi NW 11.5 mph - N/A   Partly Cloudy
9:53 AM 57.0 °F - 46.9 °F 69% 30.08 in 10.0 mi WNW 8.1 mph - N/A   Partly Cloudy
10:53 AM 59.0 °F - 44.1 °F 58% 30.08 in 10.0 mi NNW 15.0 mph 19.6 mph N/A   Scattered Clouds
11:04 AM 59.0 °F - 44.6 °F 59% 30.10 in 10.0 mi NNW 13.8 mph 21.9 mph N/A   Scattered Clouds
11:53 AM 61.0 °F - 45.0 °F 56% 30.07 in 10.0 mi NW 11.5 mph 19.6 mph N/A   Scattered Clouds
12:53 PM 62.1 °F - 45.0 °F 53% 30.06 in 10.0 mi NW 10.4 mph 19.6 mph N/A   Scattered Clouds
1:53 PM 63.0 °F - 43.0 °F 48% 30.05 in 10.0 mi NW 12.7 mph - N/A   Scattered Clouds
2:53 PM 63.0 °F - 42.1 °F 46% 30.05 in 10.0 mi NNW 11.5 mph - N/A   Scattered Clouds
3:53 PM 62.1 °F - 43.0 °F 50% 30.06 in 10.0 mi NW 5.8 mph - N/A   Partly Cloudy
4:53 PM 57.9 °F - 44.1 °F 60% 30.07 in 10.0 mi WNW 6.9 mph - N/A   Partly Cloudy
5:53 PM 53.1 °F - 44.1 °F 71% 30.09 in 10.0 mi NNW 4.6 mph - N/A   Clear
6:53 PM 51.1 °F - 44.1 °F 77% 30.11 in 10.0 mi North 6.9 mph - N/A   Clear
7:53 PM 51.1 °F - 44.1 °F 77% 30.12 in 10.0 mi North 6.9 mph - N/A   Clear
8:53 PM 51.1 °F - 44.1 °F 77% 30.14 in 10.0 mi North 8.1 mph - N/A   Clear
9:53 PM 50.0 °F - 43.0 °F 77% 30.15 in 10.0 mi Calm Calm - N/A   Clear
10:53 PM 46.9 °F - 43.0 °F 86% 30.16 in 10.0 mi North 8.1 mph - N/A   Clear
11:53 PM 48.0 °F - 43.0 °F 83% 30.17 in 10.0 mi NNE 3.5 mph - N/A   Clear